STARLINK-4734, 53790

Orbit data source: Space-Track

STARLINK-4734, 53790 is a payload satellite owned by SpaceX/Seattle (US) in LEO that was launched on Sun, 11 Sep 2022 UTC via an FALCON 9 launch vehicle from the Air Force Eastern Test Range (AFETR). Payload-class satellites include a variety of spacecraft equipped with specific instruments for various scientific and technological missions. These include communications satellites like Starlink; space stations such as the ISS; scientific satellites like the Hubble; Earth observation satellites from companies like Planet Labs, Umbra, and HawkEye 360; GPS; miniature CubeSats for education and research; and military/defense satellites.

Loading next visibility...
Identifier
53790, 2022-111T
Orbit
LEO
Country
Flag of USUS
Related business
Manufacturer
SpaceX/Seattle
Mission
Operational Commercial Communications
Bus & Motor
STARLINK, Unknown motor
Mass
305 kg wet, ~290 kg dry
Launch date (UTC)
2022-09-11 (4 years ago)
Launch vehicle
FALCON 9
Launch site
Air Force Eastern Test Range (AFETR)
Object type
Payload
Rocket body
Debris
Shape & HBR
Box + 1 Pan, 10.1 m
Radar Cross Section
13.562 m², Large (>1 m²)

Expand to show TLE details & history
Last TLE update: 10 hours ago

TLE from 10 hours ago
0 STARLINK-4734
1 53790U 22111T   26263.57209043  .00019115  00000-0  19714-3 0  9992
2 53790  53.1576  99.7625 0001163  84.5828 275.5320 15.64869681223383
Epoch: 2026-09-20T13:43Z
TLE epoch observation values (Epoch: 2026-09-20T13:43:48.613Z)
Latitude
-0.00004°
Longitude
-105.65443°
Altitude
374.451 km
Speed
7.686 km/s
True Right ascension
06h 39m 02s
True Declination
0° 00' 00"
Sunlit
Object was in daylight at epoch
Visualization orbit readout
Latitude
Unknown
Longitude
Unknown
Altitude
Unknown
Speed
Unknown
Apparent Right ascension
Unknown
Apparent Declination
Unknown
Sunlit
N/A
Visualization observer readout
Local Sidereal Time
17:10:26
Azimuth
Unknown
Elevation
Unknown
Doppler factor
Unknown
Orbital elements
Apogee altitude
374.659 km
Perigee altitude
373.089 km
Semi-major axis
6,752.011 km
Eccentricity
0.00012
Inclination
53.1576°
RAAN
99.7625°
Arg. of periapsis
84.5828°
True anomaly
275.51873°
Mean anomaly
275.532°
Eccentric anomaly
275.52537°
Mean motion
3.91195 °/min
Orbital period
92.03 mins
BSTAR
0.00019714
Loading maneuver chart data...
Computing Atmospheric mass density...
Loading historical data...
Loading historical data...
Loading historical data...
Loading historical data...
Loading historical data...
Loading historical data...
Loading historical data...

Documentation

Showing up to 5 results
|